EW5980 Weather Reports


Display with metric or nautical units.
time (UTC)temp
F
wind
direction
speed
MPH
gust
MPH
rain 1hr
in
rain 24hr
in
rain mn
in
humidity
%
barometer
mb
20260906190057 98 0.0 0.0 0.00 0.00 0.00 53 1012.1
20260906184553 99 0.0 0.0 0.00 0.00 0.00 51 1012.2
20260906183051 99 0.0 0.0 0.00 0.00 0.00 53 1012.4
20260906181631 99 0.0 0.0 0.00 0.00 0.00 53 1012.5
20260906174553 98 0.0 0.0 0.00 0.00 0.00 53 1012.8
20260906173047 98 0.0 0.0 0.00 0.00 0.00 56 1012.9
20260906171608 97 0.0 0.0 0.00 0.00 0.00 56 1013.0
20260906170107 96 0.0 0.0 0.00 0.00 0.00 59 1013.3
20260906164554 95 0.0 0.0 0.00 0.00 0.00 61 1013.4
20260906163047 95 0.0 0.0 0.00 0.00 0.00 62 1013.7
20260906161556 94 0.0 0.0 0.00 0.00 0.00 62 1013.9
20260906160056 93 0.0 0.0 0.00 0.00 0.00 66 1014.0
20260906154552 91 0.0 0.0 0.00 0.00 0.00 68 1014.0
20260906153046 90 0.0 0.0 0.00 0.00 0.00 71 1014.1
20260906151556 90 0.0 0.0 0.00 0.00 0.00 71 1014.1
20260906150108 89 0.0 0.0 0.00 0.00 0.00 72 1014.0
20260906144611 87 0.0 0.0 0.00 0.00 0.00 74 1014.2
20260906143108 85 0.0 0.0 0.00 0.00 0.00 75 1014.0
20260906141554 84 0.0 0.0 0.00 0.00 0.00 74 1014.3
20260906140046 82 0.0 0.0 0.00 0.00 0.00 66 1014.4
20260906134556 81 0.0 0.0 0.00 0.00 0.00 62 1014.4
20260906133107 80 0.0 0.0 0.00 0.00 0.00 52 1014.4
20260906131553 78 0.0 0.0 0.00 0.00 0.00 35 1014.4
20260906130100 77 0.0 0.0 0.00 0.00 0.00 29 1014.2
20260906124556 76 0.0 0.0 0.00 0.00 0.00 26 1014.2
20260906123055 76 0.0 0.0 0.00 0.00 0.00 28 1014.1
20260906121551 76 0.0 0.0 0.00 0.00 0.00 30 1014.0
20260906120057 76 0.0 0.0 0.00 0.00 0.00 33 1013.9
20260906114602 76 0.0 0.0 0.00 0.00 0.00 33 1013.7
20260906113054 76 0.0 0.0 0.00 0.00 0.00 33 1013.5
20260906111551 76 0.0 0.0 0.00 0.00 0.00 33 1013.4
20260906110057 76 0.0 0.0 0.00 0.00 0.00 32 1013.4
20260906104559 76 0.0 0.0 0.00 0.00 0.00 32 1013.2
20260906103046 76 0.0 0.0 0.00 0.00 0.00 32 1013.1
20260906101557 76 0.0 0.0 0.00 0.00 0.00 31 1013.0
20260906100055 76 0.0 0.0 0.00 0.00 0.00 30 1013.1
20260906094607 76 0.0 0.0 0.00 0.00 0.00 30 1013.0
20260906093130 76 0.0 0.0 0.00 0.00 0.00 28 1012.9
20260906091606 76 0.0 0.0 0.00 0.00 0.00 30 1012.8
20260906090058 76 0.0 0.0 0.00 0.00 0.00 32 1012.7
20260906084552 76 0.0 0.0 0.00 0.00 0.00 33 1012.7
20260906083058 76 0.0 0.0 0.00 0.00 0.00 34 1012.3
20260906081557 76 0.0 0.0 0.00 0.00 0.00 34 1012.0
20260906080059 76 0.0 0.0 0.00 0.00 0.00 35 1012.0
20260906074556 77 0.0 0.0 0.00 0.00 0.00 36 1011.9
20260906073047 77 0.0 0.0 0.00 0.00 0.00 36 1011.9
20260906071547 77 0.0 0.0 0.00 0.00 0.00 36 1011.8
20260906070053 77 0.0 0.0 0.00 0.00 0.00 36 1011.7
20260906064546 77 0.0 0.0 0.00 0.00 0.00 36 1012.0
20260906063050 77 0.0 0.0 0.00 0.00 0.00 37 1012.1
20260906061556 77 0.0 0.0 0.00 0.00 0.00 37 1012.1
20260906060054 77 0.0 0.0 0.00 0.00 0.00 37 1012.2
20260906054549 78 0.0 0.0 0.00 0.00 0.00 38 1012.2
20260906053051 78 0.0 0.0 0.00 0.00 0.00 38 1012.1
20260906051558 78 0.0 0.0 0.00 0.00 0.00 36 1012.0
20260906050049 78 0.0 0.0 0.00 0.00 0.00 37 1012.2
20260906044600 78 0.0 0.0 0.00 0.00 0.00 37 1012.3
20260906043051 79 0.0 0.0 0.00 0.00 0.00 38 1012.4
20260906041545 79 0.0 0.0 0.00 0.00 0.00 38 1012.4
20260906040105 79 0.0 0.0 0.00 0.00 0.00 39 1012.6
20260906034554 79 0.0 0.0 0.00 0.00 0.00 38 1012.5
20260906033100 79 0.0 0.0 0.00 0.00 0.00 38 1012.6
20260906031556 79 0.0 0.0 0.00 0.00 0.00 38 1012.8
20260906024558 80 0.0 0.0 0.00 0.00 0.00 37 1012.7
20260906023056 80 0.0 0.0 0.00 0.00 0.00 37 1012.9
20260906021554 80 0.0 0.0 0.00 0.00 0.00 37 1012.7
20260906020052 80 0.0 0.0 0.00 0.00 0.00 36 1012.7
20260906014634 80 0.0 0.0 0.00 0.00 0.00 37 1012.6
20260906013101 81 0.0 0.0 0.00 0.00 0.00 37 1012.4
20260906011603 81 0.0 0.0 0.00 0.00 0.00 40 1012.4
20260906010054 81 0.0 0.0 0.00 0.00 0.00 45 1012.2
20260906004549 81 0.0 0.0 0.00 0.00 0.00 48 1012.2
20260906003112 81 0.0 0.0 0.00 0.00 0.00 50 1012.1
20260906001556 82 0.0 0.0 0.00 0.00 0.00 51 1012.1
20260906000052 82 0.0 0.0 0.00 0.00 0.00 55 1012.2
20260905234549 82 0.0 0.0 0.00 0.00 0.00 54 1011.9
20260905233057 82 0.0 0.0 0.00 0.00 0.00 57 1012.0
20260905231557 82 0.0 0.0 0.00 0.00 0.00 56 1012.0
20260905230054 82 0.0 0.0 0.00 0.00 0.00 61 1011.9
20260905224613 82 0.0 0.0 0.00 0.00 0.00 66 1011.9
20260905223058 82 0.0 0.0 0.00 0.00 0.00 69 1012.0
20260905221611 83 0.0 0.0 0.00 0.00 0.00 75 1012.2
20260905220047 84 0.0 0.0 0.00 0.00 0.00 77 1012.3
20260905214548 86 0.0 0.0 0.00 0.00 0.00 71 1012.4
20260905213103 88 0.0 0.0 0.00 0.00 0.00 67 1012.6
20260905211602 91 0.0 0.0 0.00 0.00 0.00 58 1012.6
20260905210057 94 0.0 0.0 0.00 0.00 0.00 56 1012.0
20260905204554 96 0.0 0.0 0.00 0.00 0.00 54 1011.7
20260905203046 95 0.0 0.0 0.00 0.00 0.00 55 1012.1
20260905201618 95 0.0 0.0 0.00 0.00 0.00 56 1012.2
20260905200057 95 0.0 0.0 0.00 0.00 0.00 56 1012.4
20260905194551 95 0.0 0.0 0.00 0.00 0.00 56 1012.5
20260905193056 95 0.0 0.0 0.00 0.00 0.00 56 1012.6